TimeAST,TemperatureF,Dew PointF,Humidity,Sea Level PressureIn,VisibilityMPH,Wind Direction,Wind SpeedMPH,Gust SpeedMPH,PrecipitationIn,Events,Conditions,WindDirDegrees,DateUTC
12:00 AM,86.0,71.6,62,29.95,-9999.0,NE,4.6,-,N/A,,Clear,40,2012-10-22 21:00:00
12:30 AM,86.0,71.6,62,29.95,-9999.0,NE,4.6,-,N/A,,Clear,40,2012-10-22 21:30:00
1:00 AM,86.0,71.6,62,29.95,-9999.0,NE,3.5,-,N/A,,Clear,40,2012-10-22 22:00:00
1:30 AM,84.2,71.6,66,29.92,-9999.0,NE,3.5,-,N/A,,Clear,50,2012-10-22 22:30:00
2:00 AM,86.0,71.6,62,29.95,-9999.0,NNE,3.5,-,N/A,,Clear,30,2012-10-22 23:00:00
2:30 AM,86.0,73.4,66,29.95,-9999.0,NNE,3.5,-,N/A,,Clear,30,2012-10-22 23:30:00
3:00 AM,85,74,62,29.95,9,ENE,3.5,,,,Clear,60,2012-10-23 00:00:00
3:00 AM,86.0,73.4,66,29.95,-9999.0,ENE,3.5,-,N/A,,Clear,60,2012-10-23 00:00:00
3:30 AM,86.0,73.4,66,29.95,-9999.0,Variable,2.3,-,N/A,,Clear,0,2012-10-23 00:30:00
4:00 AM,84.2,73.4,70,29.95,-9999.0,Variable,2.3,-,N/A,,Clear,0,2012-10-23 01:00:00
4:30 AM,84.2,73.4,70,29.95,-9999.0,Variable,2.3,-,N/A,,Clear,0,2012-10-23 01:30:00
5:00 AM,84.2,73.4,70,29.95,-9999.0,NE,3.5,-,N/A,,Clear,50,2012-10-23 02:00:00
5:30 AM,84.2,73.4,70,29.98,-9999.0,East,3.5,-,N/A,,Clear,80,2012-10-23 02:30:00
6:00 AM,84.2,73.4,70,29.98,-9999.0,East,4.6,-,N/A,,Clear,100,2012-10-23 03:00:00
6:30 AM,86.0,73.4,66,29.98,-9999.0,East,4.6,-,N/A,,Clear,100,2012-10-23 03:30:00
7:00 AM,86.0,73.4,66,29.98,-9999.0,ESE,3.5,-,N/A,,Clear,110,2012-10-23 04:00:00
7:30 AM,87.8,71.6,58,30.01,-9999.0,East,4.6,-,N/A,,Clear,90,2012-10-23 04:30:00
8:00 AM,89.6,69.8,52,30.01,-9999.0,East,6.9,-,N/A,,Clear,90,2012-10-23 05:00:00
8:30 AM,89.6,73.4,59,30.01,-9999.0,East,8.1,-,N/A,,Clear,100,2012-10-23 05:30:00
9:00 AM,91,71,43,30.03,10,East,9.2,,,,Scattered Clouds,100,2012-10-23 06:00:00
9:00 AM,91.4,71.6,52,30.01,6.2,East,9.2,-,N/A,,Partly Cloudy,100,2012-10-23 06:00:00
9:30 AM,91.4,71.6,52,30.01,6.2,East,10.4,-,N/A,,Scattered Clouds,100,2012-10-23 06:30:00
10:00 AM,91.4,71.6,52,30.01,6.2,East,10.4,-,N/A,,Scattered Clouds,90,2012-10-23 07:00:00
10:30 AM,91.4,73.4,55,30.01,6.2,East,10.4,-,N/A,,Scattered Clouds,100,2012-10-23 07:30:00
11:00 AM,91.4,73.4,55,30.01,6.2,ESE,11.5,-,N/A,,Scattered Clouds,110,2012-10-23 08:00:00
11:30 AM,93.2,71.6,49,29.98,6.2,ESE,10.4,-,N/A,,Scattered Clouds,110,2012-10-23 08:30:00
12:00 PM,91.4,73.4,55,29.98,6.2,East,10.4,-,N/A,,Scattered Clouds,100,2012-10-23 09:00:00
12:30 PM,93.2,69.8,46,29.98,6.2,ESE,9.2,-,N/A,,Partly Cloudy,110,2012-10-23 09:30:00
1:00 PM,91.4,71.6,52,29.98,-9999.0,East,10.4,-,N/A,,Clear,100,2012-10-23 10:00:00
1:30 PM,93.2,69.8,46,29.95,-9999.0,East,9.2,-,N/A,,Clear,90,2012-10-23 10:30:00
2:00 PM,91.4,69.8,49,29.95,6.2,East,9.2,-,N/A,,Scattered Clouds,100,2012-10-23 11:00:00
2:30 PM,91.4,71.6,52,29.95,6.2,East,9.2,-,N/A,,Scattered Clouds,90,2012-10-23 11:30:00
3:00 PM,91,71,43,29.96,9,East,9.2,,,,Scattered Clouds,100,2012-10-23 12:00:00
3:00 PM,91.4,71.6,52,29.95,6.2,East,9.2,-,N/A,,Scattered Clouds,100,2012-10-23 12:00:00
3:30 PM,91.4,71.6,52,29.95,6.2,East,8.1,-,N/A,,Scattered Clouds,90,2012-10-23 12:30:00
4:00 PM,89.6,71.6,55,29.95,6.2,East,8.1,-,N/A,,Scattered Clouds,100,2012-10-23 13:00:00
4:30 PM,89.6,71.6,55,29.95,6.2,East,6.9,-,N/A,,Scattered Clouds,100,2012-10-23 13:30:00
5:00 PM,87.8,73.4,62,29.95,6.2,East,8.1,-,N/A,,Scattered Clouds,100,2012-10-23 14:00:00
5:30 PM,87.8,73.4,62,29.95,6.2,East,4.6,-,N/A,,Scattered Clouds,90,2012-10-23 14:30:00
6:30 PM,87.8,73.4,62,29.98,-9999.0,NE,3.5,-,N/A,,Clear,50,2012-10-23 15:30:00
7:00 PM,87.8,73.4,62,29.98,-9999.0,NE,3.5,-,N/A,,Clear,40,2012-10-23 16:00:00
7:30 PM,86.0,73.4,66,29.98,-9999.0,ENE,3.5,-,N/A,,Clear,70,2012-10-23 16:30:00
8:00 PM,86.0,71.6,62,29.98,-9999.0,NE,3.5,-,N/A,,Clear,50,2012-10-23 17:00:00
8:30 PM,86.0,71.6,62,29.98,-9999.0,NE,3.5,-,N/A,,Clear,50,2012-10-23 17:30:00
9:00 PM,86,72,55,29.99,7,NE,3.5,,,,,50,2012-10-23 18:00:00
9:00 PM,86.0,71.6,62,29.98,-9999.0,NE,3.5,-,N/A,,Clear,50,2012-10-23 18:00:00
9:30 PM,84.2,71.6,66,29.98,-9999.0,Variable,2.3,-,N/A,,Clear,0,2012-10-23 18:30:00
10:00 PM,84.2,69.8,62,29.98,-9999.0,NE,3.5,-,N/A,,Clear,50,2012-10-23 19:00:00
10:30 PM,84.2,71.6,66,29.98,-9999.0,NNE,4.6,-,N/A,,Clear,30,2012-10-23 19:30:00
11:00 PM,84.2,71.6,66,29.98,-9999.0,North,6.9,-,N/A,,Clear,10,2012-10-23 20:00:00
11:30 PM,84.2,71.6,66,29.95,-9999.0,NNE,5.8,-,N/A,,Clear,30,2012-10-23 20:30:00